Location: Catstown
(52.4386°N, 7.2633°W)
Time: 01:44:50
(UTC+00:00)

Lacrosse 5 rocket - Pass Details

Date: 18 September 2020
Orbit: 460 x 636 km, 57.0° (Epoch: 30 October)

Event Time Altitude Azimuth Distance (km) Brightness Sun altitude
Rises 19:43:58 0° 255° (WSW) 2,743 6.0 -11.0°
Reaches altitude 10° 19:46:10 10° 259° (W) 1,878 5.1 -11.3°
Maximum altitude 19:50:25 63° 341° (NNW) 670 1.9 -11.9°
Drops below altitude 10° 19:54:55 10° 63° (ENE) 1,980 3.7 -12.6°
Enters shadow 19:55:08 - 63° (ENE) 2,067 3.8 -12.6°
